Simultaneous Nadir Overpasses (SNOs) Predictions

Prediction of SNOs near equator between NOAA-19 and NPP Satellite Orbit:

Table of predicted SNOs near equator for the next 14.0 days since TLE Epoch: 10/5/2012
Index Date (NOAA-19) Time (NOAA-19) NOAA-19 Lat,Lon Date (NPP) Time (NPP) NPP Lat,Lon Distance(km) Time Diff (sec)
1 10/10/2012 08:24:57 29.96, 72.04 10/10/2012 08:18:47 29.74, 71.06 97.82 370
2 10/10/2012 09:15:54 -29.99,-120.70 10/10/2012 09:09:29 -29.78,-121.62 91.77 385
3 10/10/2012 10:07:01 29.96, 46.52 10/10/2012 10:00:17 29.80, 45.67 84.04 404
4 10/10/2012 10:57:58 -29.99,-146.22 10/10/2012 10:50:59 -29.85,-147.02 78.03 419
5 10/10/2012 11:49:06 29.96, 21.00 10/10/2012 11:41:47 29.81, 20.29 70.30 439
6 10/10/2012 12:40:03 -29.99,-171.74 10/10/2012 12:32:29 -29.86,-172.39 64.27 454
7 10/10/2012 13:31:11 29.96, -4.52 10/10/2012 13:23:17 29.82, -5.09 56.65 474
8 10/10/2012 14:22:08 -29.99, 162.73 10/10/2012 14:13:59 -29.86, 162.23 50.58 489
9 10/10/2012 15:13:16 29.96, -30.04 10/10/2012 15:04:48 29.89, -30.48 42.88 508
10 10/10/2012 16:04:13 -29.98, 137.21 10/10/2012 15:55:30 -29.93, 136.84 36.92 523
11 10/10/2012 16:55:21 29.96, -55.56 10/10/2012 16:46:18 29.90, -55.86 29.14 543
12 10/10/2012 17:46:18 -29.98, 111.69 10/10/2012 17:37:00 -29.94, 111.46 23.11 558
13 10/10/2012 18:37:26 29.96, -81.08 10/10/2012 18:27:48 29.91, -81.23 15.68 578
14 10/10/2012 19:28:23 -29.98, 86.17 10/10/2012 19:18:30 -29.95, 86.08 9.49 593
15 10/10/2012 20:12:25 5.07,-100.48 10/10/2012 20:02:25 5.68,-100.72 73.26 600




NCC Satellite Simultaneous Nadir Overpasses (SNOs) Prediction Service
